Location: Montamat
(43.4852°N, 0.8444°E)
Time: 20:32:55
(UTC+00:00)

ISS - Pass Details

Date: 14 May 2026
Orbit: 413 x 423 km, 51.6° (Epoch: 6 June)

Event Time Altitude Azimuth Distance (km) Brightness Sun altitude
Rises 22:08:18 0° 300° (WNW) 2,352 1.0 -23.2°
Reaches altitude 10° 22:10:42 10° 316° (NW) 1,489 0.0 -23.4°
Maximum altitude 22:13:23 22° 10° (N) 965 -1.4 -23.6°
Enters shadow 22:14:30 19° 39° (NE) 1,075 -1.5 -23.7°
